When you browse on this site, cookies collect data to enhance your experience and personalize the content and advertising you see.
Visit our Privacy Policy to learn more. By continuing to use the site, you agree to this use of cookies and data.
  • In Hungary
  • List of Countries
  • For 7 days
  • Water Temperature
  • Satellite Maps
  • Weather Map
  • News
  • Weather Widgets
  • user-avatar
    Login

    Hourly Weather Ponary

    Today, 17 January, Thursday

    Time Temperature Precipitation Wind Pressure Humidity
    00:00 +1°C° 0 mm 6 mps 737 mmHg 93%
    01:00 +1°C° 0 mm 5 mps 737 mmHg 93%
    02:00 -1°C° 0.1 mm 6 mps 736 mmHg 92%
    03:00 -1°C° 0.1 mm 6 mps 736 mmHg 92%
    04:00 -1°C° 0.1 mm 7 mps 735 mmHg 91%
    05:00 -1°C° 0.1 mm 7 mps 735 mmHg 90%
    06:00 -1°C° 0.1 mm 7 mps 734 mmHg 89%
    07:00 -1°C° 0 mm 7 mps 734 mmHg 89%
    08:00 -1°C° 0.2 mm 7 mps 734 mmHg 89%
    09:00 -1°C° 0.2 mm 7 mps 734 mmHg 89%
    10:00 -1°C° 0.2 mm 7 mps 734 mmHg 89%
    11:00 0°C° 0 mm 7 mps 734 mmHg 88%
    12:00 +1°C° 0 mm 6 mps 735 mmHg 87%
    13:00 +1°C° 0 mm 6 mps 735 mmHg 86%
    14:00 +1°C° 0.1 mm 6 mps 735 mmHg 86%
    15:00 +1°C° 0.1 mm 5 mps 735 mmHg 85%
    16:00 0°C° 0.1 mm 5 mps 736 mmHg 85%
    17:00 0°C° 0 mm 5 mps 736 mmHg 85%
    18:00 0°C° 0 mm 5 mps 736 mmHg 85%
    19:00 -1°C° 0 mm 5 mps 736 mmHg 85%
    20:00 -1°C° 0 mm 5 mps 736 mmHg 87%
    21:00 -1°C° 0 mm 4 mps 736 mmHg 88%
    22:00 -1°C° 0 mm 4 mps 736 mmHg 89%
    23:00 -1°C° 0 mm 4 mps 736 mmHg 91%

    Tomorrow, 18 January, Friday

    Time Temperature Precipitation Wind Pressure Humidity
    00:00 -1°C° 0 mm 4 mps 736 mmHg 92%
    01:00 -2°C° 0 mm 4 mps 735 mmHg 94%
    02:00 -1°C° 1.1 mm 4 mps 735 mmHg 94%
    03:00 -1°C° 1.1 mm 5 mps 735 mmHg 94%
    04:00 0°C° 1.1 mm 5 mps 735 mmHg 94%
    05:00 -1°C° 0.1 mm 5 mps 736 mmHg 91%
    06:00 -2°C° 0.1 mm 5 mps 736 mmHg 88%
    07:00 -4°C° 0.1 mm 6 mps 737 mmHg 84%
    08:00 -4°C° 0.4 mm 6 mps 738 mmHg 85%
    09:00 -4°C° 0.4 mm 6 mps 739 mmHg 86%
    10:00 -4°C° 0.4 mm 6 mps 741 mmHg 87%
    11:00 -4°C° 0.2 mm 6 mps 742 mmHg 83%
    12:00 -4°C° 0.2 mm 6 mps 743 mmHg 79%
    13:00 -3°C° 0.2 mm 6 mps 744 mmHg 74%
    14:00 -4°C° 0 mm 5 mps 745 mmHg 77%
    15:00 -4°C° 0 mm 5 mps 745 mmHg 79%
    16:00 -4°C° 0 mm 4 mps 746 mmHg 82%
    17:00 -4°C° 0 mm 4 mps 747 mmHg 82%
    18:00 -5°C° 0 mm 4 mps 747 mmHg 82%
    19:00 -5°C° 0 mm 4 mps 748 mmHg 82%
    20:00 -5°C° 0 mm 4 mps 748 mmHg 82%
    21:00 -5°C° 0 mm 4 mps 749 mmHg 82%
    22:00 -5°C° 0 mm 4 mps 749 mmHg 82%
    23:00 -5°C° 0 mm 4 mps 749 mmHg 83%

    Day after tomorrow, 19 January, Saturday

    Time Temperature Precipitation Wind Pressure Humidity
    00:00 -6°C° 0 mm 3 mps 750 mmHg 84%
    01:00 -6°C° 0 mm 3 mps 750 mmHg 86%
    02:00 -6°C° 0 mm 3 mps 750 mmHg 88%
    03:00 -6°C° 0 mm 3 mps 750 mmHg 91%
    04:00 -6°C° 0 mm 3 mps 750 mmHg 93%
    05:00 -6°C° 0 mm 3 mps 750 mmHg 93%
    06:00 -6°C° 0 mm 3 mps 751 mmHg 93%
    07:00 -6°C° 0 mm 3 mps 751 mmHg 93%
    08:00 -5°C° 0 mm 3 mps 751 mmHg 92%
    09:00 -5°C° 0 mm 4 mps 751 mmHg 90%
    10:00 -4°C° 0 mm 4 mps 752 mmHg 89%
    11:00 -3°C° 0 mm 4 mps 752 mmHg 87%
    12:00 -3°C° 0 mm 4 mps 752 mmHg 85%
    13:00 -2°C° 0 mm 4 mps 751 mmHg 84%
    14:00 -3°C° 0 mm 4 mps 751 mmHg 85%
    15:00 -2°C° 0 mm 3 mps 751 mmHg 86%
    16:00 -4°C° 0 mm 3 mps 751 mmHg 88%
    17:00 -4°C° 0 mm 3 mps 752 mmHg 88%
    18:00 -5°C° 0 mm 3 mps 752 mmHg 88%
    19:00 -5°C° 0 mm 3 mps 752 mmHg 89%
    20:00 -5°C° 0 mm 3 mps 752 mmHg 89%
    21:00 -5°C° 0 mm 3 mps 752 mmHg 90%
    22:00 -5°C° 0 mm 3 mps 752 mmHg 91%
    23:00 -5°C° 0 mm 3 mps 752 mmHg 91%

    20 January, Sunday

    Time Temperature Precipitation Wind Pressure Humidity
    00:00 -6°C° 0 mm 3 mps 752 mmHg 92%
    01:00 -6°C° 0 mm 3 mps 752 mmHg 93%
    02:00 -6°C° 0 mm 3 mps 751 mmHg 93%
    03:00 -6°C° 0 mm 3 mps 751 mmHg 93%
    04:00 -6°C° 0 mm 3 mps 751 mmHg 94%
    05:00 -6°C° 0 mm 3 mps 751 mmHg 94%
    06:00 -6°C° 0 mm 3 mps 751 mmHg 94%
    07:00 -5°C° 0 mm 2 mps 750 mmHg 94%
    08:00 -6°C° 0 mm 3 mps 751 mmHg 92%
    09:00 -5°C° 0 mm 3 mps 751 mmHg 91%
    10:00 -5°C° 0 mm 3 mps 751 mmHg 89%
    11:00 -4°C° 0 mm 3 mps 750 mmHg 88%
    12:00 -2°C° 0 mm 3 mps 750 mmHg 87%
    13:00 -2°C° 0 mm 3 mps 750 mmHg 85%
    14:00 -2°C° 0 mm 3 mps 750 mmHg 87%
    15:00 -4°C° 0 mm 3 mps 750 mmHg 88%
    16:00 -4°C° 0 mm 3 mps 750 mmHg 90%
    17:00 -4°C° 0.1 mm 3 mps 750 mmHg 91%
    18:00 -2°C° 0.1 mm 3 mps 750 mmHg 92%
    19:00 -2°C° 0.1 mm 3 mps 751 mmHg 94%
    20:00 -2°C° 0.1 mm 2 mps 751 mmHg 93%
    21:00 -1°C° 0.1 mm 1 mps 751 mmHg 92%
    22:00 -1°C° 0.1 mm 1 mps 752 mmHg 91%
    23:00 -2°C° 0 mm 1 mps 752 mmHg 88%

    21 January, Monday

    Time Temperature Precipitation Wind Pressure Humidity
    00:00 -2°C° 0 mm 1 mps 752 mmHg 86%
    01:00 -3°C° 0 mm 1 mps 752 mmHg 83%
    02:00 -3°C° 0 mm 1 mps 752 mmHg 82%
    03:00 -3°C° 0 mm 1 mps 753 mmHg 81%
    04:00 -3°C° 0 mm 1 mps 753 mmHg 79%
    05:00 -4°C° 0 mm 1 mps 753 mmHg 79%
    06:00 -4°C° 0 mm 1 mps 753 mmHg 79%
    07:00 -4°C° 0 mm 1 mps 753 mmHg 79%
    08:00 -3°C° 0 mm 1 mps 754 mmHg 79%
    09:00 -3°C° 0 mm 1 mps 754 mmHg 79%
    10:00 -4°C° 0 mm 2 mps 754 mmHg 79%
    11:00 -4°C° 0 mm 2 mps 754 mmHg 78%
    12:00 -3°C° 0 mm 2 mps 754 mmHg 77%
    13:00 -2°C° 0 mm 2 mps 754 mmHg 76%
    14:00 -3°C° 0 mm 2 mps 754 mmHg 79%
    15:00 -4°C° 0 mm 2 mps 754 mmHg 81%
    16:00 -5°C° 0 mm 2 mps 754 mmHg 83%
    17:00 -5°C° 0 mm 2 mps 753 mmHg 84%
    18:00 -5°C° 0 mm 2 mps 753 mmHg 85%
    19:00 -6°C° 0 mm 2 mps 753 mmHg 87%
    20:00 -6°C° 0 mm 2 mps 753 mmHg 88%
    21:00 -6°C° 0 mm 2 mps 753 mmHg 90%
    22:00 -6°C° 0 mm 2 mps 753 mmHg 92%
    23:00 -6°C° 0 mm 2 mps 753 mmHg 93%

    22 January, Tuesday

    Time Temperature Precipitation Wind Pressure Humidity
    00:00 -6°C° 0 mm 2 mps 753 mmHg 94%
    01:00 -6°C° 0 mm 2 mps 753 mmHg 95%
    02:00 -6°C° 0 mm 2 mps 752 mmHg 95%
    03:00 -6°C° 0 mm 2 mps 752 mmHg 94%
    04:00 -6°C° 0 mm 2 mps 752 mmHg 94%
    05:00 -6°C° 0 mm 2 mps 751 mmHg 94%
    06:00 -6°C° 0 mm 2 mps 751 mmHg 93%
    07:00 -4°C° 0 mm 1 mps 751 mmHg 93%
    08:00 -6°C° 0 mm 2 mps 751 mmHg 92%
    09:00 -5°C° 0 mm 2 mps 751 mmHg 91%
    10:00 -5°C° 0 mm 2 mps 751 mmHg 90%
    11:00 -4°C° 0 mm 2 mps 751 mmHg 88%
    12:00 -4°C° 0 mm 2 mps 750 mmHg 86%
    13:00 -3°C° 0 mm 2 mps 750 mmHg 84%
    14:00 -4°C° 0 mm 2 mps 750 mmHg 86%
    15:00 -5°C° 0 mm 2 mps 749 mmHg 88%
    16:00 -5°C° 0 mm 2 mps 749 mmHg 90%
    17:00 -6°C° 0 mm 2 mps 749 mmHg 89%
    18:00 -6°C° 0 mm 2 mps 749 mmHg 89%
    19:00 -8°C° 0 mm 3 mps 749 mmHg 89%
    20:00 -8°C° 0 mm 3 mps 749 mmHg 87%
    21:00 -8°C° 0 mm 3 mps 749 mmHg 84%
    22:00 -9°C° 0 mm 3 mps 748 mmHg 82%
    23:00 -9°C° 0 mm 3 mps 748 mmHg 82%
    Show more